This demonstration page uses our WeatherBlox Daily Observations layout. Learn more.

Left ArrowRight Arrow

39.92423, -83.80882

Hourly Observations for July 24, 2020

Temp ( °F °C ) Dew Point ( °F °C ) Humidity (%) Winds ( mph kmh ) Pressure ( in mb ) Visibility ( mi km ) Precip ( " mm )
12:56 am 00:56 Clear with Mist and Fog 70 21.1 70 21.1 100 100 SW 5 7 30.10 1019 3 5 N/A
1:07 am 01:07 Clear with Mist and Fog 70 21 70 21 100 100 SW 5 7 30.08 1019 3 4 N/A
1:21 am 01:21 Mostly Clear with Mist and Fog 70 21 70 21 100 100 N N/A 30.08 1019 2 3 N/A
1:26 am 01:26 Mostly Cloudy with Mist and Fog 68 20 68 20 100 100 N N/A 30.09 1019 1 1 N/A
1:31 am 01:31 Mostly Cloudy with Fog 70 21 70 21 100 100 N N/A 30.09 1019 0 0 N/A
1:56 am 01:56 Cloudy with Fog 69 20.6 69 20.6 100 100 N N/A 30.10 1019 0 0 N/A
2:56 am 02:56 Cloudy with Fog 68 20 68 20 100 100 N N/A 30.10 1019 0 0 N/A
3:14 am 03:14 Cloudy with Fog 68 20 68 20 100 100 N N/A 30.08 1019 1 1 N/A
3:36 am 03:36 Cloudy with Fog 68 20 68 20 100 100 N N/A 30.09 1019 0 0 N/A
3:56 am 03:56 Cloudy with Fog 67 19.4 67 19.4 100 100 WSW 3 6 30.10 1019 0 0 N/A
4:04 am 04:04 Cloudy with Fog 66 19 66 19 100 100 W 3 6 30.10 1019 1 1 N/A
4:13 am 04:13 Cloudy with Fog 66 19 66 19 100 100 N N/A 30.10 1019 0 0 N/A
4:56 am 04:56 Cloudy with Fog 66 18.9 66 18.9 100 100 NNE 3 6 30.11 1020 0 0 N/A
5:56 am 05:56 Cloudy with Fog 65 18.3 65 18.3 100 100 N N/A 30.12 1020 0 0 N/A
6:43 am 06:43 Cloudy with Fog 64 18 64 18 100 100 N N/A 30.11 1020 1 1 N/A
6:53 am 06:53 Cloudy with Fog 64 18 64 18 100 100 N N/A 30.12 1020 0 0 N/A
6:56 am 06:56 Cloudy with Fog 65 18.3 65 18.3 100 100 N N/A 30.12 1020 N/A N/A
7:56 am 07:56 Cloudy with Fog 66 18.9 66 18.9 100 100 N N/A 30.13 1020 0 0 N/A
8:56 am 08:56 Cloudy with Fog 69 20.6 69 20.6 100 100 N N/A 30.14 1021 0 0 N/A
9:18 am 09:18 Cloudy with Mist and Fog 70 21 70 21 100 100 N N/A 30.13 1020 1 1 0.03 0.76
9:22 am 09:22 Cloudy with Mist and Fog 70 21 70 21 100 100 N N/A 30.13 1020 1 2 0.03 0.76
9:30 am 09:30 Mostly Cloudy with Mist and Fog 72 22 72 22 100 100 N N/A 30.12 1020 4 6 0.03 0.76
9:45 am 09:45 Partly Cloudy 72 22 72 22 100 100 N N/A 30.12 1020 10 16 0.03 0.76
9:56 am 09:56 Sunny 73 22.8 73 22.8 100 100 N N/A 30.15 1021 10 16 0.03 0.76
10:56 am 10:56 Partly Cloudy 78 25.6 71 21.7 79 79 N N/A 30.16 1021 10 16 N/A
11:56 am 11:56 Mostly Cloudy 81 27.2 69 20.6 67 67 NNW 5 7 30.16 1021 10 16 N/A
12:56 pm 12:56 Mostly Cloudy 81 27.2 69 20.6 67 67 VRB 5 7 30.15 1021 10 16 N/A
1:56 pm 13:56 Mostly Cloudy 84 28.9 68 20 59 59 VRB 3 6 30.14 1021 10 16 N/A
2:56 pm 14:56 Sunny 83 28.3 66 18.9 57 57 undefined N/A 30.13 1020 10 16 N/A
3:56 pm 15:56 Sunny 84 28.9 66 18.9 55 55 NW 6 9 30.11 1020 10 16 N/A
4:56 pm 16:56 Sunny 86 30 63 17.2 46 46 VRB 5 7 30.09 1019 10 16 N/A
5:56 pm 17:56 Sunny 85 29.4 65 18.3 51 51 VRB 3 6 30.08 1019 10 16 N/A
6:56 pm 18:56 Mostly Sunny 85 29.4 66 18.9 53 53 WNW 5 7 30.08 1019 10 16 N/A
7:56 pm 19:56 Sunny 83 28.3 67 19.4 59 59 NW 5 7 30.09 1019 10 16 N/A
8:56 pm 20:56 Sunny 78 25.6 70 21.1 76 76 NW 3 6 30.10 1019 10 16 N/A
9:56 pm 21:56 Clear 73 22.8 71 21.7 94 94 ENE 3 6 30.12 1020 10 16 N/A
10:56 pm 22:56 Mostly Cloudy 73 22.8 72 22.2 96 96 N N/A 30.12 1020 10 16 N/A
11:56 pm 23:56 Clear 73 22.8 69 20.6 87 87 NE 5 7 30.12 1020 10 16 N/A

Powered by AerisWeather